Weather History for Balikesir, Turkey

Change the Weather History Date:

Monday, February 17, 2014

  Actual Average Record
Temperature  
Mean Temperature 48 °F -  
Max Temperature 69 °F 54 °F 69 °F (2014)
Min Temperature 28 °F 38 °F 23 °F (2001)
Degree Days  
Heating Degree Days 16    
Moisture  
Dew Point 40 °F    
Average Humidity 77    
Maximum Humidity 100    
Minimum Humidity 31    
Precipitation  
Precipitation 0.00 in 0.08 in - ()
Sea Level Pressure  
Sea Level Pressure 30.20 in    
Wind  
Wind Speed 1 mph ()    
Max Wind Speed 9 mph    
Max Gust Speed -    
Visibility 4.2 miles    
Events      
Averages and records for this station are not official NWS values.
T = Trace of Precipitation, MM = Missing Value Source: Averaged Metar Reports

Daily Weather History Graph

Daily Weather History Graph

Search for Another Location

Airport:

Trip Planner

Search our weather history database for the weather conditions in past years. The results will help you decide how hot, cold, wet, or windy it might be!

Date:

Astronomy

Feb. 17, 2014 Rise Set
Actual Time 6:58 AM EET 5:46 PM EET
Civil Twilight 6:30 AM EET 6:14 PM EET
Nautical Twilight 5:59 AM EET 6:45 PM EET
Astronomical Twilight 5:28 AM EET 7:17 PM EET
Moon 8:21 PM EET (2/17) 7:49 AM EET (2/17)
Length of Visible Light 11h 43m
Length of Day
10h 48m
Waning Gibbous, 95% of the Moon is Illuminated
Feb 17
Waning Gibbous
Feb 22
Last Quarter
Mar 1
New
Mar 8
First Quarter
Mar 16
Full

Hourly Weather History & Observations

Time (EET) Temp. Windchill Dew Point Humidity Pressure Visibility Wind Dir Wind Speed Gust Speed Precip Events Conditions
12:00 AM 37 °F - 36 °F 97% 30.22 in 6 mi Calm Calm - -  
12:50 AM 35.6 °F - 35.6 °F 100% 30.21 in - Calm Calm - N/A   Clear
1:00 AM 36 °F - 35 °F 97% 30.23 in 6 mi Calm Calm - -  
1:50 AM 35.6 °F - 35.6 °F 100% 30.21 in - Calm Calm - N/A   Clear
2:00 AM 35 °F - 35 °F 100% 30.23 in 6 mi Calm Calm - -  
2:50 AM 33.8 °F - 33.8 °F 100% 30.21 in - Calm Calm - N/A   Clear
3:00 AM 34 °F - 34 °F 100% 30.22 in 6 mi Calm Calm - -  
3:50 AM 32.0 °F - 32.0 °F 100% 30.18 in 1.2 mi North 1.2 mph - N/A   Mist
4:00 AM 32 °F - 32 °F 100% 30.21 in 1 mi North 1.2 mph - -   Mist
4:50 AM 32.0 °F - 32.0 °F 100% 30.18 in 1.2 mi Calm Calm - N/A   Mist
5:00 AM 31 °F - 31 °F 100% 30.21 in 1 mi Calm Calm - -   Mist
5:50 AM 32.0 °F - 32.0 °F 100% 30.18 in 1.2 mi West 1.2 mph - N/A   Mist
6:00 AM 31 °F - 31 °F 100% 30.22 in 1 mi West 1.2 mph - -   Mist
6:50 AM 30.2 °F - 30.2 °F 100% 30.21 in 1.2 mi Calm Calm - N/A   Mist
7:00 AM 30 °F - 29 °F 96% 30.23 in 1 mi Calm Calm - -   Mist
7:50 AM 32.0 °F - 32.0 °F 100% 30.24 in - Calm Calm - N/A   Mist
8:00 AM 31 °F - 31 °F 100% 30.26 in 2 mi Calm Calm - -   Mist
8:50 AM 39.2 °F - 39.2 °F 100% 30.24 in 2.5 mi Calm Calm - N/A   Mist
9:00 AM 39 °F - 39 °F 99% 30.26 in 2 mi Calm Calm - -   Mist
9:50 AM 44.6 °F 43.1 °F 41.0 °F 87% 30.24 in 3.7 mi NE 3.5 mph - N/A   Unknown
10:00 AM 44 °F - 41 °F 84% 30.26 in 4 mi NE 3.5 mph - -   Mist
10:50 AM 50.0 °F - 42.8 °F 76% 30.24 in - Variable 2.3 mph - N/A   Clear
11:00 AM 50 °F - 43 °F 68% 30.25 in 6 mi NE 2.3 mph - -  
11:50 AM 55.4 °F - 46.4 °F 72% 30.21 in - Variable 1.2 mph - N/A   Clear
12:00 PM 56 °F - 46 °F 59% 30.23 in 6 mi ENE 1.2 mph - -  
12:50 PM 60.8 °F - 48.2 °F 63% 30.18 in - Calm Calm - N/A   Clear
1:00 PM 60 °F - 47 °F 53% 30.20 in 6 mi Calm Calm - -  
1:50 PM 64.4 °F - 48.2 °F 56% 30.15 in - Variable 2.3 mph - N/A   Clear
2:00 PM 64 °F - 48 °F 46% 30.17 in 6 mi SE 2.3 mph - -  
2:50 PM 68.0 °F - 50.0 °F 52% 30.15 in - Variable 2.3 mph - N/A   Clear
3:00 PM 69 °F - 49 °F 37% 30.16 in 6 mi SSW 4.6 mph - -  
3:50 PM 69.8 °F - 44.6 °F 40% 30.12 in - WSW 9.2 mph - N/A   Clear
4:00 PM 69 °F - 45 °F 31% 30.15 in 6 mi WSW 9.2 mph - -  
4:50 PM 66.2 °F - 44.6 °F 46% 30.15 in - WSW 6.9 mph - N/A   Clear
5:00 PM 67 °F - 44 °F 31% 30.16 in 6 mi WSW 6.9 mph - -  
5:50 PM 60.8 °F - 44.6 °F 55% 30.15 in - SW 3.5 mph - N/A   Clear
6:00 PM 61 °F - 45 °F 44% 30.17 in 6 mi SW 3.5 mph - -  
6:50 PM 55.4 °F - 42.8 °F 63% 30.18 in - WSW 4.6 mph - N/A   Clear
7:00 PM 55 °F - 43 °F 53% 30.19 in 6 mi WSW 4.6 mph - -  
7:50 PM 51.8 °F - 42.8 °F 71% 30.18 in - Variable 1.2 mph - N/A   Clear
8:00 PM 52 °F - 42 °F 61% 30.21 in 6 mi WSW 1.2 mph - -  
8:50 PM 48.2 °F - 42.8 °F 82% 30.21 in - West 4.6 mph - N/A   Clear
9:00 PM 49 °F - 42 °F 71% 30.22 in 6 mi West 4.6 mph - -  
9:50 PM 46.4 °F - 42.8 °F 87% 30.21 in - Calm Calm - N/A   Clear
10:00 PM 47 °F - 42 °F 76% 30.24 in 6 mi Calm Calm - -  
10:50 PM 46.4 °F - 42.8 °F 87% 30.21 in - Calm Calm - N/A   Clear
11:00 PM 46 °F - 42 °F 80% 30.24 in 6 mi Calm Calm - -  
11:50 PM 42.8 °F - 39.2 °F 87% 30.24 in - Calm Calm - N/A   Clear